NOAA 16 DEB, 41149

Orbit data source: Space-Track

NOAA 16 DEB, 41149 is space debris in SSO originally from a launch on Thu, 21 Sep 2000 UTC launched from the Air Force Western Test Range (AFWTR). Debris objects in space refer to the collection of defunct objects orbiting the Earth. Examples of debris include non-operational satellites, rocket bodies, and fragments generated from explosions, collisions, or faulty payload assembly.

Loading next visibility...
Identifier
41149, 2000-055CG
Orbit
SSO
Country
Flag of USUS
Related business
Manufacturer
Unknown
Mission
Spacecraft
Bus & Motor
Unknown
Mass
Unknown
Launch date (UTC)
2000-09-21 (26 years ago)
Launch vehicle
Unknown
Launch site
Air Force Western Test Range (AFWTR)
Object type
Payload
Rocket body
Debris
Shape & HBR
Unknown shape, 0.1 m
Radar Cross Section
Small (<0.1 m²)

Expand to show TLE details & history
Last TLE update: 15 hours ago

TLE from 15 hours ago
0 NOAA 16 DEB
1 41149U 00055CG  26127.50306756  .00019958  00000-0  24327-2 0  9991
2 41149  98.9228  38.6146 0034424  54.5714 305.8702 14.82992276547720
Epoch: 2026-05-07T12:04Z
TLE epoch observation values (Epoch: 2026-05-07T12:04:25.037Z)
Latitude
-0.00005°
Longitude
-7.83799°
Altitude
608.824 km
Speed
7.562 km/s
True Right ascension
02h 34m 27s
True Declination
0° 00' 00"
Sunlit
Object was in daylight at epoch
Visualization orbit readout
Latitude
Unknown
Longitude
Unknown
Altitude
Unknown
Speed
Unknown
Apparent Right ascension
Unknown
Apparent Declination
Unknown
Sunlit
N/A
Visualization observer readout
Local Sidereal Time
10:59:40
Azimuth
Unknown
Elevation
Unknown
Doppler factor
Unknown
Orbital elements
Apogee altitude
641.06 km
Perigee altitude
592.9 km
Semi-major axis
6,995.117 km
Eccentricity
0.00344
Inclination
98.9228°
RAAN
38.6146°
Arg. of periapsis
54.5714°
True anomaly
305.54974°
Mean anomaly
305.8702°
Eccentric anomaly
305.71005°
Mean motion
3.7098 °/min
Orbital period
97.04 mins
BSTAR
0.0024327
Loading maneuver chart data...
Computing Atmospheric mass density...
Loading historical data...
Loading historical data...
Loading historical data...
Loading historical data...
Loading historical data...
Loading historical data...
Loading historical data...

Documentation

Showing up to 5 results
|